Location: Bakov nad Jizerou
(50.4784°N, 14.9394°E)
Time: 14:24:22
(UTC+00:00)

Cosmos 1536 Rocket - Pass Details

Date: 22 October 2021
Orbit: 605 x 632 km, 82.5° (Epoch: 05 December)

Event Time Altitude Azimuth Distance (km) Brightness Sun altitude
Rises 03:55:48 0° 153° (SSE) 2,894 7.3 -16.3°
Reaches altitude 10° 03:58:23 10° 138° (SE) 1,988 6.7 -15.9°
Maximum altitude 04:01:49 23° 87° (E) 1,337 6.3 -15.4°
Drops below altitude 10° 04:05:15 10° 36° (NE) 1,988 6.6 -14.8°
Sets 04:07:49 0° 21° (NNE) 2,893 7.3 -14.4°
